Year,Month,Day,Hour,Minute,Value (Times are PST for temperature in C)
2014,07,12,00,00,16.90
2014,07,12,00,01,16.90
2014,07,12,00,02,16.90
2014,07,12,00,03,16.80
2014,07,12,00,04,16.80
2014,07,12,00,05,16.80
2014,07,12,00,06,16.80
2014,07,12,00,07,16.70
2014,07,12,00,08,16.70
2014,07,12,00,09,16.70
2014,07,12,00,10,16.60
2014,07,12,00,11,16.60
2014,07,12,00,12,16.60
2014,07,12,00,13,16.60
2014,07,12,00,14,16.60
2014,07,12,00,15,16.50
2014,07,12,00,16,16.50
2014,07,12,00,17,16.50
2014,07,12,00,18,16.40
2014,07,12,00,19,16.40
2014,07,12,00,20,16.40
2014,07,12,00,21,16.40
2014,07,12,00,22,16.30
2014,07,12,00,23,16.30
2014,07,12,00,24,16.30
2014,07,12,00,25,16.30
2014,07,12,00,26,16.30
2014,07,12,00,27,16.20
2014,07,12,00,28,16.20
2014,07,12,00,29,16.20
2014,07,12,00,30,16.20
2014,07,12,00,31,16.20
2014,07,12,00,32,16.10
2014,07,12,00,33,16.10
2014,07,12,00,34,16.10
2014,07,12,00,35,16.10
2014,07,12,00,36,16.10
2014,07,12,00,37,16.10
2014,07,12,00,38,16.00
2014,07,12,00,39,16.00
2014,07,12,00,40,16.00
2014,07,12,00,41,16.00
2014,07,12,00,42,16.00
2014,07,12,00,43,15.90
2014,07,12,00,44,15.90
2014,07,12,00,45,15.90
2014,07,12,00,46,15.90
2014,07,12,00,47,15.90
2014,07,12,00,48,15.90
2014,07,12,00,49,15.90
2014,07,12,00,50,15.90
2014,07,12,00,51,15.90
2014,07,12,00,52,15.90
2014,07,12,00,53,15.80
2014,07,12,00,54,15.80
2014,07,12,00,55,15.80
2014,07,12,00,56,15.80
2014,07,12,00,57,15.80
2014,07,12,00,58,15.80
2014,07,12,00,59,15.70
2014,07,12,01,00,15.70
2014,07,12,01,01,15.70
2014,07,12,01,02,15.70
2014,07,12,01,03,15.70
2014,07,12,01,04,15.70
2014,07,12,01,05,15.60
2014,07,12,01,06,15.60
2014,07,12,01,07,15.60
2014,07,12,01,08,15.60
2014,07,12,01,09,15.60
2014,07,12,01,10,15.60
2014,07,12,01,11,15.60
2014,07,12,01,12,15.60
2014,07,12,01,13,15.60
2014,07,12,01,14,15.60
2014,07,12,01,15,15.60
2014,07,12,01,16,15.60
2014,07,12,01,17,15.50
2014,07,12,01,18,15.50
2014,07,12,01,19,15.50
2014,07,12,01,20,15.40
2014,07,12,01,21,15.40
2014,07,12,01,22,15.40
2014,07,12,01,23,15.40
2014,07,12,01,24,15.40
2014,07,12,01,25,15.40
2014,07,12,01,26,15.30
2014,07,12,01,27,15.30
2014,07,12,01,28,15.30
2014,07,12,01,29,15.30
2014,07,12,01,30,15.30
2014,07,12,01,31,15.30
2014,07,12,01,32,15.30
2014,07,12,01,33,15.20
2014,07,12,01,34,15.20
2014,07,12,01,35,15.20
2014,07,12,01,36,15.20
2014,07,12,01,37,15.20
2014,07,12,01,38,15.10
2014,07,12,01,39,15.10
2014,07,12,01,40,15.10
2014,07,12,01,41,15.10
2014,07,12,01,42,15.10
2014,07,12,01,43,15.10
2014,07,12,01,44,15.00
2014,07,12,01,45,15.00
2014,07,12,01,46,15.00
2014,07,12,01,47,15.00
2014,07,12,01,48,15.00
2014,07,12,01,49,14.90
2014,07,12,01,50,14.90
2014,07,12,01,51,14.90
2014,07,12,01,52,14.90
2014,07,12,01,53,14.90
2014,07,12,01,54,14.90
2014,07,12,01,55,14.90
2014,07,12,01,56,14.90
2014,07,12,01,57,14.80
2014,07,12,01,58,14.80
2014,07,12,01,59,14.80
2014,07,12,02,00,14.80
2014,07,12,02,01,14.80
2014,07,12,02,02,14.80
2014,07,12,02,03,14.80
2014,07,12,02,04,14.80
2014,07,12,02,05,14.80
2014,07,12,02,06,14.80
2014,07,12,02,07,14.70
2014,07,12,02,08,14.70
2014,07,12,02,09,14.70
2014,07,12,02,10,14.70
2014,07,12,02,11,14.70
2014,07,12,02,12,14.70
2014,07,12,02,13,14.70
2014,07,12,02,14,14.70
2014,07,12,02,15,14.70
2014,07,12,02,16,14.70
2014,07,12,02,17,14.70
2014,07,12,02,18,14.70
2014,07,12,02,19,14.70
2014,07,12,02,20,14.70
2014,07,12,02,21,14.70
2014,07,12,02,22,14.70
2014,07,12,02,23,14.70
2014,07,12,02,24,14.70
2014,07,12,02,25,14.60
2014,07,12,02,26,14.60
2014,07,12,02,27,14.60
2014,07,12,02,28,14.60
2014,07,12,02,29,14.60
2014,07,12,02,30,14.60
2014,07,12,02,31,14.60
2014,07,12,02,32,14.60
2014,07,12,02,33,14.60
2014,07,12,02,34,14.60
2014,07,12,02,35,14.60
2014,07,12,02,36,14.60
2014,07,12,02,37,14.60
2014,07,12,02,38,14.60
2014,07,12,02,39,14.60
2014,07,12,02,40,14.60
2014,07,12,02,41,14.60
2014,07,12,02,42,14.50
2014,07,12,02,43,14.50
2014,07,12,02,44,14.50
2014,07,12,02,45,14.50
2014,07,12,02,46,14.40
2014,07,12,02,47,14.40
2014,07,12,02,48,14.40
2014,07,12,02,49,14.40
2014,07,12,02,50,14.30
2014,07,12,02,51,14.30
2014,07,12,02,52,14.30
2014,07,12,02,53,14.30
2014,07,12,02,54,14.30
2014,07,12,02,55,14.20
2014,07,12,02,56,14.20
2014,07,12,02,57,14.20
2014,07,12,02,58,14.20
2014,07,12,02,59,14.20
2014,07,12,03,00,14.20
2014,07,12,03,01,14.20
2014,07,12,03,02,14.20
2014,07,12,03,03,14.20
2014,07,12,03,04,14.10
2014,07,12,03,05,14.20
2014,07,12,03,06,14.20
2014,07,12,03,07,14.20
2014,07,12,03,08,14.20
2014,07,12,03,09,14.10
2014,07,12,03,10,14.10
2014,07,12,03,11,14.10
2014,07,12,03,12,14.10
2014,07,12,03,13,14.10
2014,07,12,03,14,14.10
2014,07,12,03,15,14.10
2014,07,12,03,16,14.00
2014,07,12,03,17,14.00
2014,07,12,03,18,14.00
2014,07,12,03,19,14.00
2014,07,12,03,20,14.00
2014,07,12,03,21,13.90
2014,07,12,03,22,13.90
2014,07,12,03,23,13.90
2014,07,12,03,24,13.90
2014,07,12,03,25,13.90
2014,07,12,03,26,13.90
2014,07,12,03,27,13.90
2014,07,12,03,28,13.80
2014,07,12,03,29,13.80
2014,07,12,03,30,13.80
2014,07,12,03,31,13.80
2014,07,12,03,32,13.80
2014,07,12,03,33,13.80
2014,07,12,03,34,13.80
2014,07,12,03,35,13.80
2014,07,12,03,36,13.80
2014,07,12,03,37,13.80
2014,07,12,03,38,13.80
2014,07,12,03,39,13.80
2014,07,12,03,40,13.80
2014,07,12,03,41,13.80
2014,07,12,03,42,13.80
2014,07,12,03,43,13.70
2014,07,12,03,44,13.70
2014,07,12,03,45,13.70
2014,07,12,03,46,13.70
2014,07,12,03,47,13.70
2014,07,12,03,48,13.70
2014,07,12,03,49,13.70
2014,07,12,03,50,13.70
2014,07,12,03,51,13.70
2014,07,12,03,52,13.60
2014,07,12,03,53,13.60
2014,07,12,03,54,13.60
2014,07,12,03,55,13.60
2014,07,12,03,56,13.60
2014,07,12,03,57,13.60
2014,07,12,03,58,13.60
2014,07,12,03,59,13.50
2014,07,12,04,00,13.50
2014,07,12,04,01,13.40
2014,07,12,04,02,13.40
2014,07,12,04,03,13.40
2014,07,12,04,04,13.40
2014,07,12,04,05,13.40
2014,07,12,04,06,13.40
2014,07,12,04,07,13.40
2014,07,12,04,08,13.40
2014,07,12,04,09,13.40
2014,07,12,04,10,13.40
2014,07,12,04,11,13.40
2014,07,12,04,12,13.30
2014,07,12,04,13,13.30
2014,07,12,04,14,13.30
2014,07,12,04,15,13.30
2014,07,12,04,16,13.30
2014,07,12,04,17,13.30
2014,07,12,04,18,13.30
2014,07,12,04,19,13.30
2014,07,12,04,20,13.30
2014,07,12,04,21,13.30
2014,07,12,04,22,13.30
2014,07,12,04,23,13.30
2014,07,12,04,24,13.30
2014,07,12,04,25,13.30
2014,07,12,04,26,13.20
2014,07,12,04,27,13.20
2014,07,12,04,28,13.20
2014,07,12,04,29,13.20
2014,07,12,04,30,13.20
2014,07,12,04,31,13.20
2014,07,12,04,32,13.20
2014,07,12,04,33,13.20
2014,07,12,04,34,13.20
2014,07,12,04,35,13.20
2014,07,12,04,36,13.10
2014,07,12,04,37,13.10
2014,07,12,04,38,13.10
2014,07,12,04,39,13.10
2014,07,12,04,40,13.10
2014,07,12,04,41,13.00
2014,07,12,04,42,13.00
2014,07,12,04,43,13.00
2014,07,12,04,44,13.00
2014,07,12,04,45,12.90
2014,07,12,04,46,12.90
2014,07,12,04,47,13.00
2014,07,12,04,48,12.90
2014,07,12,04,49,12.90
2014,07,12,04,50,12.90
2014,07,12,04,51,12.90
2014,07,12,04,52,12.90
2014,07,12,04,53,12.90
2014,07,12,04,54,12.90
2014,07,12,04,55,12.90
2014,07,12,04,56,12.90
2014,07,12,04,57,12.90
2014,07,12,04,58,12.90
2014,07,12,04,59,12.90
2014,07,12,05,00,12.90
2014,07,12,05,01,12.90
2014,07,12,05,02,12.90
2014,07,12,05,03,12.90
2014,07,12,05,04,12.90
2014,07,12,05,05,12.90
2014,07,12,05,06,12.90
2014,07,12,05,07,12.90
2014,07,12,05,08,12.90
2014,07,12,05,09,12.90
2014,07,12,05,10,12.90
2014,07,12,05,11,12.90
2014,07,12,05,12,12.90
2014,07,12,05,13,12.90
2014,07,12,05,14,12.90
2014,07,12,05,15,12.90
2014,07,12,05,16,12.90
2014,07,12,05,17,12.90
2014,07,12,05,18,12.90
2014,07,12,05,19,12.90
2014,07,12,05,20,12.90
2014,07,12,05,21,12.90
2014,07,12,05,22,12.90
2014,07,12,05,23,12.80
2014,07,12,05,24,12.80
2014,07,12,05,25,12.80
2014,07,12,05,26,12.80
2014,07,12,05,27,12.80
2014,07,12,05,28,12.80
2014,07,12,05,29,12.80
2014,07,12,05,30,12.80
2014,07,12,05,31,12.80
2014,07,12,05,32,12.80
2014,07,12,05,33,12.80
2014,07,12,05,34,12.70
2014,07,12,05,35,12.70
2014,07,12,05,36,12.80
2014,07,12,05,37,12.70
2014,07,12,05,38,12.70
2014,07,12,05,39,12.70
2014,07,12,05,40,12.80
2014,07,12,05,41,12.80
2014,07,12,05,42,12.80
2014,07,12,05,43,12.80
2014,07,12,05,44,12.80
2014,07,12,05,45,12.80
2014,07,12,05,46,12.80
2014,07,12,05,47,12.80
2014,07,12,05,48,12.80
2014,07,12,05,49,12.80
2014,07,12,05,50,12.70
2014,07,12,05,51,12.70
2014,07,12,05,52,12.70
2014,07,12,05,53,12.70
2014,07,12,05,54,12.70
2014,07,12,05,55,12.80
2014,07,12,05,56,12.80
2014,07,12,05,57,12.80
2014,07,12,05,58,12.80
2014,07,12,05,59,12.80
2014,07,12,06,00,12.80
2014,07,12,06,01,12.80
2014,07,12,06,02,12.80
2014,07,12,06,03,12.80
2014,07,12,06,04,12.80
2014,07,12,06,05,12.70
2014,07,12,06,06,12.70
2014,07,12,06,07,12.70
2014,07,12,06,08,12.70
2014,07,12,06,09,12.70
2014,07,12,06,10,12.70
2014,07,12,06,11,12.70
2014,07,12,06,12,12.70
2014,07,12,06,13,12.70
2014,07,12,06,14,12.70
2014,07,12,06,15,12.70
2014,07,12,06,16,12.70
2014,07,12,06,17,12.70
2014,07,12,06,18,12.70
2014,07,12,06,19,12.70
2014,07,12,06,20,12.70
2014,07,12,06,21,12.70
2014,07,12,06,22,12.70
2014,07,12,06,23,12.70
2014,07,12,06,24,12.70
2014,07,12,06,25,12.70
2014,07,12,06,26,12.70
2014,07,12,06,27,12.70
2014,07,12,06,28,12.80
2014,07,12,06,29,12.80
2014,07,12,06,30,12.80
2014,07,12,06,31,12.90
2014,07,12,06,32,12.90
2014,07,12,06,33,13.00
2014,07,12,06,34,13.00
2014,07,12,06,35,13.10
2014,07,12,06,36,13.20
2014,07,12,06,37,13.30
2014,07,12,06,38,13.30
2014,07,12,06,39,13.40
2014,07,12,06,40,13.50
2014,07,12,06,41,13.50
2014,07,12,06,42,13.60
2014,07,12,06,43,13.70
2014,07,12,06,44,13.80
2014,07,12,06,45,13.80
2014,07,12,06,46,13.90
2014,07,12,06,47,14.00
2014,07,12,06,48,14.00
2014,07,12,06,49,14.10
2014,07,12,06,50,14.20
2014,07,12,06,51,14.30
2014,07,12,06,52,14.40
2014,07,12,06,53,14.50
2014,07,12,06,54,14.60
2014,07,12,06,55,14.60
2014,07,12,06,56,14.70
2014,07,12,06,57,14.80
2014,07,12,06,58,14.90
2014,07,12,06,59,14.90
2014,07,12,07,00,15.00
2014,07,12,07,01,15.10
2014,07,12,07,02,15.20
2014,07,12,07,03,15.30
2014,07,12,07,04,15.30
2014,07,12,07,05,15.40
2014,07,12,07,06,15.40
2014,07,12,07,07,15.50
2014,07,12,07,08,15.60
2014,07,12,07,09,15.60
2014,07,12,07,10,15.70
2014,07,12,07,11,15.80
2014,07,12,07,12,15.90
2014,07,12,07,13,15.90
2014,07,12,07,14,16.00
2014,07,12,07,15,16.00
2014,07,12,07,16,16.00
2014,07,12,07,17,16.10
2014,07,12,07,18,16.10
2014,07,12,07,19,16.10
2014,07,12,07,20,16.20
2014,07,12,07,21,16.20
2014,07,12,07,22,16.20
2014,07,12,07,23,16.30
2014,07,12,07,24,16.30
2014,07,12,07,25,16.30
2014,07,12,07,26,16.40
2014,07,12,07,27,16.50
2014,07,12,07,28,16.60
2014,07,12,07,29,16.70
2014,07,12,07,30,16.70
2014,07,12,07,31,16.80
2014,07,12,07,32,16.80
2014,07,12,07,33,16.90
2014,07,12,07,34,16.90
2014,07,12,07,35,16.90
2014,07,12,07,36,17.00
2014,07,12,07,37,17.00
2014,07,12,07,38,17.00
2014,07,12,07,39,17.10
2014,07,12,07,40,17.10
2014,07,12,07,41,17.20
2014,07,12,07,42,17.20
2014,07,12,07,43,17.30
2014,07,12,07,44,17.30
2014,07,12,07,45,17.40
2014,07,12,07,46,17.50
2014,07,12,07,47,17.60
2014,07,12,07,48,17.60
2014,07,12,07,49,17.70
2014,07,12,07,50,17.80
2014,07,12,07,51,17.80
2014,07,12,07,52,17.90
2014,07,12,07,53,17.90
2014,07,12,07,54,18.00
2014,07,12,07,55,18.10
2014,07,12,07,56,18.20
2014,07,12,07,57,18.30
2014,07,12,07,58,18.40
2014,07,12,07,59,18.40
2014,07,12,08,00,18.50
2014,07,12,08,01,18.70
2014,07,12,08,02,18.70
2014,07,12,08,03,18.80
2014,07,12,08,04,18.90
2014,07,12,08,05,19.00
2014,07,12,08,06,19.10
2014,07,12,08,07,19.20
2014,07,12,08,08,19.30
2014,07,12,08,09,19.40
2014,07,12,08,10,19.40
2014,07,12,08,11,19.50
2014,07,12,08,12,19.60
2014,07,12,08,13,19.60
2014,07,12,08,14,19.70
2014,07,12,08,15,19.70
2014,07,12,08,16,19.80
2014,07,12,08,17,19.90
2014,07,12,08,18,19.90
2014,07,12,08,19,20.00
2014,07,12,08,20,20.10
2014,07,12,08,21,20.20
2014,07,12,08,22,20.30
2014,07,12,08,23,20.40
2014,07,12,08,24,20.60
2014,07,12,08,25,20.70
2014,07,12,08,26,20.90
2014,07,12,08,27,21.00
2014,07,12,08,28,21.10
2014,07,12,08,29,21.30
2014,07,12,08,30,21.40
2014,07,12,08,31,21.50
2014,07,12,08,32,21.60
2014,07,12,08,33,21.70
2014,07,12,08,34,21.80
2014,07,12,08,35,21.80
2014,07,12,08,36,21.90
2014,07,12,08,37,21.90
2014,07,12,08,38,21.90
2014,07,12,08,39,22.00
2014,07,12,08,40,22.00
2014,07,12,08,41,22.10
2014,07,12,08,42,22.10
2014,07,12,08,43,22.20
2014,07,12,08,44,22.30
2014,07,12,08,45,22.50
2014,07,12,08,46,22.60
2014,07,12,08,47,22.70
2014,07,12,08,48,22.90
2014,07,12,08,49,23.00
2014,07,12,08,50,23.10
2014,07,12,08,51,23.20
2014,07,12,08,52,23.30
2014,07,12,08,53,23.40
2014,07,12,08,54,23.50
2014,07,12,08,55,23.60
2014,07,12,08,56,23.60
2014,07,12,08,57,23.70
2014,07,12,08,58,23.80
2014,07,12,08,59,23.80
2014,07,12,09,00,23.90
2014,07,12,09,01,23.90
2014,07,12,09,02,24.00
2014,07,12,09,03,24.00
2014,07,12,09,04,24.00
2014,07,12,09,05,24.00
2014,07,12,09,06,24.00
2014,07,12,09,07,24.00
2014,07,12,09,08,24.00
2014,07,12,09,09,24.00
2014,07,12,09,10,24.00
2014,07,12,09,11,23.90
2014,07,12,09,12,24.00
2014,07,12,09,13,24.00
2014,07,12,09,14,23.90
2014,07,12,09,15,23.90
2014,07,12,09,16,23.80
2014,07,12,09,17,23.80
2014,07,12,09,18,23.80
2014,07,12,09,19,23.90
2014,07,12,09,20,23.90
2014,07,12,09,21,23.90
2014,07,12,09,22,23.90
2014,07,12,09,23,23.90
2014,07,12,09,24,24.00
2014,07,12,09,25,24.00
2014,07,12,09,26,24.10
2014,07,12,09,27,24.20
2014,07,12,09,28,24.20
2014,07,12,09,29,24.30
2014,07,12,09,30,24.40
2014,07,12,09,31,24.50
2014,07,12,09,32,24.60
2014,07,12,09,33,24.70
2014,07,12,09,34,24.80
2014,07,12,09,35,25.00
2014,07,12,09,36,25.10
2014,07,12,09,37,25.30
2014,07,12,09,38,25.30
2014,07,12,09,39,25.30
2014,07,12,09,40,25.30
2014,07,12,09,41,25.30
2014,07,12,09,42,25.30
2014,07,12,09,43,25.30
2014,07,12,09,44,25.40
2014,07,12,09,45,25.40
2014,07,12,09,46,25.50
2014,07,12,09,47,25.60
2014,07,12,09,48,25.70
2014,07,12,09,49,25.70
2014,07,12,09,50,25.70
2014,07,12,09,51,25.70
2014,07,12,09,52,25.80
2014,07,12,09,53,25.80
2014,07,12,09,54,25.80
2014,07,12,09,55,25.90
2014,07,12,09,56,25.90
2014,07,12,09,57,25.90
2014,07,12,09,58,26.00
2014,07,12,09,59,26.00
2014,07,12,10,00,26.10
2014,07,12,10,01,26.10
2014,07,12,10,02,26.10
2014,07,12,10,03,26.10
2014,07,12,10,04,26.10
2014,07,12,10,05,26.10
2014,07,12,10,06,26.10
2014,07,12,10,07,26.20
2014,07,12,10,08,26.20
2014,07,12,10,09,26.30
2014,07,12,10,10,26.40
2014,07,12,10,11,26.50
2014,07,12,10,12,26.50
2014,07,12,10,13,26.50
2014,07,12,10,14,26.40
2014,07,12,10,15,26.40
2014,07,12,10,16,26.40
2014,07,12,10,17,26.40
2014,07,12,10,18,26.40
2014,07,12,10,19,26.50
2014,07,12,10,20,26.50
2014,07,12,10,21,26.60
2014,07,12,10,22,26.60
2014,07,12,10,23,26.60
2014,07,12,10,24,26.70
2014,07,12,10,25,26.70
2014,07,12,10,26,26.80
2014,07,12,10,27,26.80
2014,07,12,10,28,26.80
2014,07,12,10,29,26.80
2014,07,12,10,30,26.80
2014,07,12,10,31,26.70
2014,07,12,10,32,26.70
2014,07,12,10,33,26.60
2014,07,12,10,34,26.50
2014,07,12,10,35,26.50
2014,07,12,10,36,26.50
2014,07,12,10,37,26.40
2014,07,12,10,38,26.40
2014,07,12,10,39,26.40
2014,07,12,10,40,26.30
2014,07,12,10,41,26.30
2014,07,12,10,42,26.30
2014,07,12,10,43,26.30
2014,07,12,10,44,26.30
2014,07,12,10,45,26.40
2014,07,12,10,46,26.40
2014,07,12,10,47,26.40
2014,07,12,10,48,26.40
2014,07,12,10,49,26.40
2014,07,12,10,50,26.30
2014,07,12,10,51,26.30
2014,07,12,10,52,26.30
2014,07,12,10,53,26.30
2014,07,12,10,54,26.30
2014,07,12,10,55,26.30
2014,07,12,10,56,26.30
2014,07,12,10,57,26.30
2014,07,12,10,58,26.40
2014,07,12,10,59,26.50
2014,07,12,11,00,26.50
2014,07,12,11,01,26.50
2014,07,12,11,02,26.50
2014,07,12,11,03,26.50
2014,07,12,11,04,26.50
2014,07,12,11,05,26.50
2014,07,12,11,06,26.50
2014,07,12,11,07,26.50
2014,07,12,11,08,26.50
2014,07,12,11,09,26.40
2014,07,12,11,10,26.40
2014,07,12,11,11,26.50
2014,07,12,11,12,26.60
2014,07,12,11,13,26.70
2014,07,12,11,14,26.70
2014,07,12,11,15,26.80
2014,07,12,11,16,26.90
2014,07,12,11,17,26.90
2014,07,12,11,18,27.00
2014,07,12,11,19,27.00
2014,07,12,11,20,26.90
2014,07,12,11,21,26.80
2014,07,12,11,22,26.80
2014,07,12,11,23,26.80
2014,07,12,11,24,26.80
2014,07,12,11,25,26.90
2014,07,12,11,26,26.90
2014,07,12,11,27,26.90
2014,07,12,11,28,27.10
2014,07,12,11,29,27.30
2014,07,12,11,30,27.50
2014,07,12,11,31,27.60
2014,07,12,11,32,27.70
2014,07,12,11,33,27.70
2014,07,12,11,34,27.60
2014,07,12,11,35,27.60
2014,07,12,11,36,27.60
2014,07,12,11,37,27.60
2014,07,12,11,38,27.50
2014,07,12,11,39,27.40
2014,07,12,11,40,27.20
2014,07,12,11,41,27.20
2014,07,12,11,42,27.10
2014,07,12,11,43,27.00
2014,07,12,11,44,27.00
2014,07,12,11,45,27.10
2014,07,12,11,46,27.20
2014,07,12,11,47,27.20
2014,07,12,11,48,27.30
2014,07,12,11,49,27.40
2014,07,12,11,50,27.40
2014,07,12,11,51,27.40
2014,07,12,11,52,27.50
2014,07,12,11,53,27.40
2014,07,12,11,54,27.40
2014,07,12,11,55,27.30
2014,07,12,11,56,27.20
2014,07,12,11,57,27.20
2014,07,12,11,58,27.20
2014,07,12,11,59,27.10
2014,07,12,12,00,27.10
2014,07,12,12,01,27.10
2014,07,12,12,02,27.10
2014,07,12,12,03,27.10
2014,07,12,12,04,27.00
2014,07,12,12,05,26.90
2014,07,12,12,06,26.80
2014,07,12,12,07,26.70
2014,07,12,12,08,26.60
2014,07,12,12,09,26.50
2014,07,12,12,10,26.40
2014,07,12,12,11,26.40
2014,07,12,12,12,26.40
2014,07,12,12,13,26.40
2014,07,12,12,14,26.40
2014,07,12,12,15,26.50
2014,07,12,12,16,26.70
2014,07,12,12,17,26.80
2014,07,12,12,18,26.90
2014,07,12,12,19,27.00
2014,07,12,12,20,27.10
2014,07,12,12,21,27.20
2014,07,12,12,22,27.30
2014,07,12,12,23,27.30
2014,07,12,12,24,27.40
2014,07,12,12,25,27.40
2014,07,12,12,26,27.50
2014,07,12,12,27,27.50
2014,07,12,12,28,27.60
2014,07,12,12,29,27.70
2014,07,12,12,30,27.80
2014,07,12,12,31,27.80
2014,07,12,12,32,27.80
2014,07,12,12,33,27.90
2014,07,12,12,34,27.90
2014,07,12,12,35,27.90
2014,07,12,12,36,27.90
2014,07,12,12,37,27.90
2014,07,12,12,38,27.90
2014,07,12,12,39,28.00
2014,07,12,12,40,28.10
2014,07,12,12,41,28.10
2014,07,12,12,42,28.20
2014,07,12,12,43,28.30
2014,07,12,12,44,28.30
2014,07,12,12,45,28.30
2014,07,12,12,46,28.30
2014,07,12,12,47,28.20
2014,07,12,12,48,28.20
2014,07,12,12,49,28.20
2014,07,12,12,50,28.10
2014,07,12,12,51,28.10
2014,07,12,12,52,28.00
2014,07,12,12,53,28.00
2014,07,12,12,54,28.10
2014,07,12,12,55,28.10
2014,07,12,12,56,28.10
2014,07,12,12,57,28.10
2014,07,12,12,58,28.10
2014,07,12,12,59,28.20
2014,07,12,13,00,28.20
2014,07,12,13,01,28.30
2014,07,12,13,02,28.30
2014,07,12,13,03,28.40
2014,07,12,13,04,28.60
2014,07,12,13,05,28.70
2014,07,12,13,06,28.80
2014,07,12,13,07,28.80
2014,07,12,13,08,28.80
2014,07,12,13,09,28.80
2014,07,12,13,10,28.90
2014,07,12,13,11,29.00
2014,07,12,13,12,29.10
2014,07,12,13,13,29.10
2014,07,12,13,14,29.10
2014,07,12,13,15,29.20
2014,07,12,13,16,29.20
2014,07,12,13,17,29.30
2014,07,12,13,18,29.50
2014,07,12,13,19,29.70
2014,07,12,13,20,29.80
2014,07,12,13,21,29.80
2014,07,12,13,22,29.80
2014,07,12,13,23,29.80
2014,07,12,13,24,29.90
2014,07,12,13,25,29.90
2014,07,12,13,26,30.00
2014,07,12,13,27,30.00
2014,07,12,13,28,30.00
2014,07,12,13,29,30.00
2014,07,12,13,30,29.90
2014,07,12,13,31,29.80
2014,07,12,13,32,29.80
2014,07,12,13,33,29.80
2014,07,12,13,34,29.80
2014,07,12,13,35,29.80
2014,07,12,13,36,29.80
2014,07,12,13,37,29.80
2014,07,12,13,38,29.80
2014,07,12,13,39,29.80
2014,07,12,13,40,29.80
2014,07,12,13,41,29.80
2014,07,12,13,42,29.80
2014,07,12,13,43,29.80
2014,07,12,13,44,29.80
2014,07,12,13,45,29.70
2014,07,12,13,46,29.70
2014,07,12,13,47,29.80
2014,07,12,13,48,29.80
2014,07,12,13,49,29.90
2014,07,12,13,50,29.90
2014,07,12,13,51,29.90
2014,07,12,13,52,29.80
2014,07,12,13,53,29.90
2014,07,12,13,54,29.90
2014,07,12,13,55,29.90
2014,07,12,13,56,30.00
2014,07,12,13,57,30.00
2014,07,12,13,58,30.00
2014,07,12,13,59,30.00
2014,07,12,14,00,30.00
2014,07,12,14,01,30.00
2014,07,12,14,02,30.10
2014,07,12,14,03,30.00
2014,07,12,14,04,30.00
2014,07,12,14,05,29.90
2014,07,12,14,06,29.80
2014,07,12,14,07,29.60
2014,07,12,14,08,29.50
2014,07,12,14,09,29.40
2014,07,12,14,10,29.20
2014,07,12,14,11,29.10
2014,07,12,14,12,29.00
2014,07,12,14,13,29.00
2014,07,12,14,14,29.10
2014,07,12,14,15,29.10
2014,07,12,14,16,29.20
2014,07,12,14,17,29.30
2014,07,12,14,18,29.30
2014,07,12,14,19,29.30
2014,07,12,14,20,29.30
2014,07,12,14,21,29.30
2014,07,12,14,22,29.20
2014,07,12,14,23,29.20
2014,07,12,14,24,29.20
2014,07,12,14,25,29.20
2014,07,12,14,26,29.30
2014,07,12,14,27,29.30
2014,07,12,14,28,29.40
2014,07,12,14,29,29.50
2014,07,12,14,30,29.60
2014,07,12,14,31,29.60
2014,07,12,14,32,29.60
2014,07,12,14,33,29.60
2014,07,12,14,34,29.60
2014,07,12,14,35,29.60
2014,07,12,14,36,29.50
2014,07,12,14,37,29.50
2014,07,12,14,38,29.50
2014,07,12,14,39,29.50
2014,07,12,14,40,29.40
2014,07,12,14,41,29.30
2014,07,12,14,42,29.20
2014,07,12,14,43,29.20
2014,07,12,14,44,29.20
2014,07,12,14,45,29.30
2014,07,12,14,46,29.30
2014,07,12,14,47,29.40
2014,07,12,14,48,29.40
2014,07,12,14,49,29.40
2014,07,12,14,50,29.30
2014,07,12,14,51,29.30
2014,07,12,14,52,29.30
2014,07,12,14,53,29.40
2014,07,12,14,54,29.40
2014,07,12,14,55,29.40
2014,07,12,14,56,29.40
2014,07,12,14,57,29.50
2014,07,12,14,58,29.60
2014,07,12,14,59,29.60
2014,07,12,15,00,29.60
2014,07,12,15,01,29.50
2014,07,12,15,02,29.50
2014,07,12,15,03,29.50
2014,07,12,15,04,29.60
2014,07,12,15,05,29.60
2014,07,12,15,06,29.60
2014,07,12,15,07,29.70
2014,07,12,15,08,29.70
2014,07,12,15,09,29.80
2014,07,12,15,10,29.80
2014,07,12,15,11,29.90
2014,07,12,15,12,29.90
2014,07,12,15,13,29.90
2014,07,12,15,14,29.80
2014,07,12,15,15,29.80
2014,07,12,15,16,29.80
2014,07,12,15,17,29.70
2014,07,12,15,18,29.60
2014,07,12,15,19,29.60
2014,07,12,15,20,29.60
2014,07,12,15,21,29.50
2014,07,12,15,22,29.50
2014,07,12,15,23,29.50
2014,07,12,15,24,29.60
2014,07,12,15,25,29.70
2014,07,12,15,26,29.80
2014,07,12,15,27,29.80
2014,07,12,15,28,29.90
2014,07,12,15,29,29.90
2014,07,12,15,30,30.00
2014,07,12,15,31,30.00
2014,07,12,15,32,30.10
2014,07,12,15,33,30.20
2014,07,12,15,34,30.20
2014,07,12,15,35,30.20
2014,07,12,15,36,30.20
2014,07,12,15,37,30.20
2014,07,12,15,38,30.20
2014,07,12,15,39,30.20
2014,07,12,15,40,30.20
2014,07,12,15,41,30.30
2014,07,12,15,42,30.30
2014,07,12,15,43,30.30
2014,07,12,15,44,30.30
2014,07,12,15,45,30.40
2014,07,12,15,46,30.50
2014,07,12,15,47,30.60
2014,07,12,15,48,30.60
2014,07,12,15,49,30.60
2014,07,12,15,50,30.60
2014,07,12,15,51,30.60
2014,07,12,15,52,30.60
2014,07,12,15,53,30.50
2014,07,12,15,54,30.40
2014,07,12,15,55,30.40
2014,07,12,15,56,30.30
2014,07,12,15,57,30.30
2014,07,12,15,58,30.30
2014,07,12,15,59,30.30
2014,07,12,16,00,30.30
2014,07,12,16,01,30.30
2014,07,12,16,02,30.20
2014,07,12,16,03,30.20
2014,07,12,16,04,30.20
2014,07,12,16,05,30.20
2014,07,12,16,06,30.20
2014,07,12,16,07,30.20
2014,07,12,16,08,30.30
2014,07,12,16,09,30.20
2014,07,12,16,10,30.20
2014,07,12,16,11,30.30
2014,07,12,16,12,30.30
2014,07,12,16,13,30.40
2014,07,12,16,14,30.40
2014,07,12,16,15,30.40
2014,07,12,16,16,30.40
2014,07,12,16,17,30.30
2014,07,12,16,18,30.30
2014,07,12,16,19,30.30
2014,07,12,16,20,30.20
2014,07,12,16,21,30.20
2014,07,12,16,22,30.10
2014,07,12,16,23,30.10
2014,07,12,16,24,30.10
2014,07,12,16,25,30.10
2014,07,12,16,26,30.10
2014,07,12,16,27,30.10
2014,07,12,16,28,30.10
2014,07,12,16,29,30.10
2014,07,12,16,30,30.10
2014,07,12,16,31,30.10
2014,07,12,16,32,30.20
2014,07,12,16,33,30.30
2014,07,12,16,34,30.30
2014,07,12,16,35,30.30
2014,07,12,16,36,30.40
2014,07,12,16,37,30.40
2014,07,12,16,38,30.40
2014,07,12,16,39,30.40
2014,07,12,16,40,30.40
2014,07,12,16,41,30.40
2014,07,12,16,42,30.40
2014,07,12,16,43,30.40
2014,07,12,16,44,30.50
2014,07,12,16,45,30.60
2014,07,12,16,46,30.60
2014,07,12,16,47,30.70
2014,07,12,16,48,30.70
2014,07,12,16,49,30.80
2014,07,12,16,50,30.80
2014,07,12,16,51,30.70
2014,07,12,16,52,30.70
2014,07,12,16,53,30.70
2014,07,12,16,54,30.60
2014,07,12,16,55,30.60
2014,07,12,16,56,30.60
2014,07,12,16,57,30.60
2014,07,12,16,58,30.60
2014,07,12,16,59,30.70
2014,07,12,17,00,30.80
2014,07,12,17,01,30.80
2014,07,12,17,02,30.90
2014,07,12,17,03,31.00
2014,07,12,17,04,31.10
2014,07,12,17,05,31.20
2014,07,12,17,06,31.20
2014,07,12,17,07,31.20
2014,07,12,17,08,31.10
2014,07,12,17,09,31.00
2014,07,12,17,10,30.90
2014,07,12,17,11,30.90
2014,07,12,17,12,30.90
2014,07,12,17,13,30.90
2014,07,12,17,14,30.90
2014,07,12,17,15,30.90
2014,07,12,17,16,30.90
2014,07,12,17,17,30.90
2014,07,12,17,18,30.90
2014,07,12,17,19,30.90